Lapse_Rate
7.0 6.8 6.6 6.6 6.6 6.5 6.5 6.5 6.6 6.7 6.6 6.6 6.3 6.4 6.4 6.4 6.4 6.4 6.5 6.6 6.6 6.5
6.8 6.8 6.6 6.6 6.5 6.5 6.6 6.8 6.7 6.6 6.5 6.3 6.1 6.1 6.1 6.2 6.4 6.4 6.3 6.4 6.4 6.5
6.6 6.5 6.4 6.3 6.3 6.2 6.5 6.6 6.7 6.4 6.3 6.2 6.0 6.1 6.2 6.1 6.3 6.2 6.3 6.3 6.5 6.9
6.5 6.5 6.3 6.2 6.2 6.3 6.6 6.7 6.7 6.5 6.3 6.0 6.0 6.1 6.1 6.1 6.0 6.2 6.2 6.4 6.7 7.1
6.6 6.3 6.2 6.3 6.7 6.9 6.9 6.7 6.3 6.2 6.1 6.1 6.1 6.1 6.1 6.2 6.3 6.3 6.4 6.5 7.1 7.3
6.4 6.2 6.2 6.3 6.7 6.8 6.9 6.6 6.4 6.3 6.2 6.2 6.4 6.6 6.4 6.4 6.3 6.3 6.4 6.8 7.3 7.4
6.6 6.4 6.3 6.6 6.7 7.0 7.1 7.0 6.6 6.4 6.5 6.6 6.7 6.7 6.6 6.3 6.1 6.5 6.9 7.1 7.3 7.3
6.3 6.3 6.5 6.7 6.8 7.0 6.9 6.8 6.4 6.4 6.5 6.5 6.5 6.4 6.4 6.4 6.8 6.9 7.0 7.4 7.5 7.5
6.2 6.2 6.4 6.6 6.8 6.4 6.4 6.3 6.2 6.1 6.3 6.3 6.3 6.4 6.8 6.8 6.9 6.9 7.3 7.5 7.5 7.5
6.3 5.8 6.1 5.9 6.2 6.4 6.0 6.1 6.3 6.5 6.3 6.3 6.6 6.8 6.9 7.0 7.2 7.5 7.6 7.6 7.7 7.7
6.3 5.6 5.4 5.8 5.7 5.7 6.2 6.4 6.4 6.3 6.4 6.6 6.6 6.9 7.0 7.0 7.4 7.7 7.7 7.8 7.9 7.8
6.0 4.9 5.1 5.0 5.1 5.6 5.7 5.7 5.9 6.2 6.3 6.6 6.7 6.8 7.1 7.3 7.6 7.7 7.7 7.7 7.7 7.6
5.7 5.8 5.4 5.3 5.2 5.4 5.6 5.9 6.1 6.3 6.6 6.7 6.9 7.2 7.3 7.4 7.5 7.6 7.6 7.7 7.6 7.6
5.2 5.4 5.3 5.3 5.5 5.5 5.8 6.1 6.2 6.5 6.8 6.9 7.0 7.1 7.1 7.3 7.5 7.5 7.5 7.3 7.3 7.2
Wind_Speed
7 6 7 8 5 6 7 7 7 7 8 8 8 7 6 2 3 4 2 1 1 1
7 7 7 9 6 6 5 5 7 8 7 7 9 8 5 3 3 4 3 2 1 0
7 6 6 6 7 7 6 8 10 8 7 7 6 7 6 5 4 5 3 3 3 1
7 7 7 6 6 6 5 7 7 7 7 6 6 6 6 6 5 6 6 3 5 4
7 6 6 6 6 5 6 4 6 5 5 6 6 7 7 7 6 6 6 6 5 5
7 7 6 6 5 6 6 4 3 4 3 3 4 4 6 7 6 5 5 5 5 5
7 6 6 5 6 5 6 6 5 5 2 2 1 3 3 2 4 6 7 8 8 7
4 5 5 7 7 7 7 7 8 8 9 8 8 6 4 6 6 7 7 8 10 9
8 6 5 7 7 8 8 8 8 9 9 8 6 9 8 7 5 5 7 8 7 7
10 7 6 8 9 7 6 7 7 6 6 6 5 11 10 12 7 6 6 6 6 6
10 9 7 7 7 6 4 5 5 5 5 5 4 10 10 12 8 8 8 7 6 7
8 8 6 6 5 4 4 4 3 3 5 6 3 7 10 8 7 7 7 7 5 6
6 8 7 6 5 2 3 4 3 4 4 6 4 7 9 7 5 6 5 5 5 9
8 7 7 6 4 4 5 5 4 4 3 4 4 5 8 6 2 5 5 4 2 2
Wind_Direction
165 165 170 174 177 182 188 191 183 181 187 197 193 184 176 176 209 198 203 218 310 327
172 158 174 186 179 189 173 178 176 184 185 191 181 182 182 198 228 181 182 201 243 241
169 172 163 163 170 153 163 161 171 181 185 185 183 185 182 209 226 195 194 191 189 208
183 180 156 167 176 167 157 152 166 180 184 189 191 195 189 209 215 205 199 179 181 186
167 161 155 161 168 162 159 159 164 176 183 193 198 197 204 203 205 198 201 204 198 164
164 154 160 164 145 142 129 126 149 141 166 198 231 215 210 209 207 190 153 106 93 78
163 154 157 151 125 123 93 76 51 27 350 312 297 23 356 197 164 107 105 93 86 78
117 85 79 94 81 80 69 62 57 47 41 43 47 23 39 80 104 117 106 92 91 88
80 65 73 79 75 66 61 57 57 50 53 46 45 15 12 104 102 103 108 105 100 107
94 73 42 62 61 55 49 52 56 52 64 67 49 40 54 78 78 83 88 107 117 102
90 92 79 75 74 67 59 58 56 54 63 79 63 66 64 74 85 81 69 66 88 102
99 94 92 91 95 88 91 79 71 63 79 83 50 82 88 87 89 88 78 69 80 89
136 126 104 109 108 102 95 96 93 76 82 107 85 68 110 112 110 102 97 80 74 91
104 117 123 128 129 120 109 106 95 104 97 102 101 86 75 118 107 134 134 127 102 57